TimeCDT,TemperatureF,Dew PointF,Humidity,Sea Level PressureIn,VisibilityMPH,Wind Direction,Wind SpeedMPH,Gust SpeedMPH,PrecipitationIn,Events,Conditions,WindDirDegrees,DateUTC
12:13 AM,71.6,60.8,69,30.05,10.0,NNE,3.5,-,N/A,,Clear,20,2013-08-22 05:13:00
12:32 AM,71.6,60.8,69,30.06,10.0,NNE,3.5,-,N/A,,Scattered Clouds,30,2013-08-22 05:32:00
12:53 AM,71.6,60.8,69,30.05,10.0,NNE,5.8,-,N/A,,Scattered Clouds,30,2013-08-22 05:53:00
1:13 AM,69.8,60.8,73,30.06,10.0,NNE,4.6,-,N/A,,Scattered Clouds,30,2013-08-22 06:13:00
1:32 AM,69.8,59.0,68,30.07,10.0,NE,3.5,-,N/A,,Scattered Clouds,40,2013-08-22 06:32:00
1:53 AM,69.8,60.8,73,30.08,10.0,Calm,Calm,-,N/A,,Mostly Cloudy,0,2013-08-22 06:53:00
2:12 AM,69.8,59.0,68,30.07,10.0,Calm,Calm,-,N/A,,Scattered Clouds,0,2013-08-22 07:12:00
2:33 AM,68.0,60.8,78,30.07,10.0,NNE,3.5,-,N/A,,Scattered Clouds,20,2013-08-22 07:33:00
2:53 AM,68.0,60.8,78,30.08,10.0,NNE,3.5,-,N/A,,Clear,20,2013-08-22 07:53:00
3:12 AM,68.0,60.8,78,30.08,10.0,North,5.8,-,N/A,,Clear,10,2013-08-22 08:12:00
3:33 AM,66.2,60.8,83,30.09,10.0,NNE,3.5,-,N/A,,Unknown,20,2013-08-22 08:33:00
3:53 AM,66.2,60.8,83,30.10,10.0,NNE,4.6,-,N/A,,Unknown,30,2013-08-22 08:53:00
4:12 AM,66.2,60.8,83,30.11,10.0,NNE,6.9,-,N/A,,Unknown,30,2013-08-22 09:12:00
4:33 AM,66.2,59.0,78,30.10,10.0,NNE,6.9,-,N/A,,Scattered Clouds,30,2013-08-22 09:33:00
4:53 AM,66.2,59.0,78,30.11,10.0,NNE,6.9,-,N/A,,Clear,30,2013-08-22 09:53:00
5:12 AM,66.2,59.0,78,30.10,10.0,NNE,5.8,-,N/A,,Clear,30,2013-08-22 10:12:00
5:33 AM,64.4,59.0,83,30.11,10.0,NNE,9.2,-,N/A,,Clear,30,2013-08-22 10:33:00
5:53 AM,66.2,57.2,73,30.10,10.0,NNE,10.4,-,N/A,,Clear,30,2013-08-22 10:53:00
6:12 AM,66.2,53.6,64,30.10,10.0,NE,11.5,18.4,N/A,,Clear,40,2013-08-22 11:12:00
6:33 AM,66.2,53.6,64,30.11,10.0,NE,9.2,-,N/A,,Clear,50,2013-08-22 11:33:00
6:53 AM,66.2,51.8,60,30.12,10.0,NE,9.2,-,N/A,,Clear,50,2013-08-22 11:53:00
7:12 AM,66.2,51.8,60,30.13,10.0,NE,9.2,-,N/A,,Clear,50,2013-08-22 12:12:00
7:33 AM,66.2,50.0,56,30.13,10.0,NE,9.2,-,N/A,,Clear,40,2013-08-22 12:33:00
7:53 AM,66.2,50.0,56,30.15,10.0,ENE,6.9,-,N/A,,Clear,70,2013-08-22 12:53:00
8:12 AM,66.2,51.8,60,30.15,10.0,NE,5.8,-,N/A,,Clear,50,2013-08-22 13:12:00
8:33 AM,66.2,50.0,56,30.15,10.0,NE,6.9,-,N/A,,Clear,50,2013-08-22 13:33:00
8:53 AM,69.8,50.0,49,30.16,10.0,ENE,5.8,-,N/A,,Clear,60,2013-08-22 13:53:00
9:12 AM,71.6,48.2,43,30.15,10.0,ENE,8.1,-,N/A,,Clear,70,2013-08-22 14:12:00
9:33 AM,71.6,48.2,43,30.15,10.0,ENE,8.1,-,N/A,,Clear,60,2013-08-22 14:33:00
9:53 AM,71.6,48.2,43,30.15,10.0,ENE,10.4,-,N/A,,Clear,60,2013-08-22 14:53:00
10:12 AM,73.4,48.2,41,30.16,10.0,NE,9.2,-,N/A,,Clear,50,2013-08-22 15:12:00
10:33 AM,73.4,48.2,41,30.15,10.0,NE,9.2,-,N/A,,Clear,40,2013-08-22 15:33:00
10:53 AM,75.2,48.2,38,30.16,10.0,NE,9.2,-,N/A,,Clear,50,2013-08-22 15:53:00
11:12 AM,77.0,48.2,36,30.16,10.0,NE,9.2,-,N/A,,Clear,40,2013-08-22 16:12:00
11:33 AM,78.8,50.0,36,30.15,10.0,NNE,10.4,-,N/A,,Clear,30,2013-08-22 16:33:00
11:53 AM,78.8,48.2,34,30.15,10.0,NE,9.2,-,N/A,,Clear,40,2013-08-22 16:53:00
12:12 PM,78.8,48.2,34,30.15,10.0,NE,9.2,-,N/A,,Clear,50,2013-08-22 17:12:00
12:33 PM,80.6,46.4,30,30.14,10.0,NE,10.4,-,N/A,,Clear,50,2013-08-22 17:33:00
12:53 PM,80.6,48.2,32,30.14,10.0,NE,8.1,-,N/A,,Clear,40,2013-08-22 17:53:00
1:12 PM,80.6,46.4,30,30.15,10.0,NE,8.1,-,N/A,,Clear,50,2013-08-22 18:12:00
1:33 PM,82.4,48.2,30,30.14,10.0,NNE,9.2,-,N/A,,Clear,30,2013-08-22 18:33:00
1:53 PM,82.4,48.2,30,30.14,10.0,ENE,6.9,-,N/A,,Clear,60,2013-08-22 18:53:00
2:12 PM,82.4,48.2,30,30.14,10.0,NNE,5.8,-,N/A,,Clear,20,2013-08-22 19:12:00
2:33 PM,82.4,46.4,28,30.13,10.0,NE,6.9,-,N/A,,Clear,40,2013-08-22 19:33:00
2:53 PM,82.4,46.4,28,30.12,10.0,ENE,6.9,-,N/A,,Clear,70,2013-08-22 19:53:00
3:12 PM,82.4,48.2,30,30.13,10.0,NNE,6.9,-,N/A,,Clear,20,2013-08-22 20:12:00
3:33 PM,82.4,46.4,28,30.12,10.0,NE,4.6,-,N/A,,Clear,40,2013-08-22 20:33:00
3:53 PM,84.2,44.6,25,30.12,10.0,NE,8.1,-,N/A,,Clear,40,2013-08-22 20:53:00
4:12 PM,84.2,44.6,25,30.12,10.0,NE,4.6,-,N/A,,Clear,40,2013-08-22 21:12:00
4:33 PM,84.2,46.4,27,30.11,10.0,NE,4.6,-,N/A,,Clear,40,2013-08-22 21:33:00
4:53 PM,84.2,48.2,29,30.11,10.0,NE,5.8,-,N/A,,Clear,50,2013-08-22 21:53:00
5:12 PM,84.2,48.2,29,30.11,10.0,NNE,5.8,-,N/A,,Clear,30,2013-08-22 22:12:00
5:33 PM,84.2,48.2,29,30.11,10.0,North,5.8,-,N/A,,Clear,10,2013-08-22 22:33:00
5:53 PM,82.4,48.2,30,30.11,10.0,North,4.6,-,N/A,,Clear,360,2013-08-22 22:53:00
6:12 PM,82.4,48.2,30,30.11,10.0,NNE,5.8,-,N/A,,Clear,30,2013-08-22 23:12:00
6:33 PM,82.4,50.0,32,30.11,10.0,North,3.5,-,N/A,,Clear,10,2013-08-22 23:33:00
6:53 PM,82.4,50.0,32,30.11,10.0,NE,3.5,-,N/A,,Clear,40,2013-08-22 23:53:00
7:12 PM,80.6,53.6,39,30.11,10.0,Calm,Calm,-,N/A,,Clear,0,2013-08-23 00:12:00
7:33 PM,78.8,55.4,44,30.11,10.0,Calm,Calm,-,N/A,,Clear,0,2013-08-23 00:33:00
7:52 PM,77.0,55.4,47,30.11,10.0,Calm,Calm,-,N/A,,Clear,0,2013-08-23 00:52:00
8:13 PM,75.2,57.2,53,30.12,10.0,Calm,Calm,-,N/A,,Clear,0,2013-08-23 01:13:00
8:33 PM,73.4,59.0,61,30.12,10.0,Calm,Calm,-,N/A,,Clear,0,2013-08-23 01:33:00
8:52 PM,69.8,59.0,68,30.13,10.0,Calm,Calm,-,N/A,,Clear,0,2013-08-23 01:52:00
9:13 PM,69.8,57.2,64,30.13,10.0,Calm,Calm,-,N/A,,Clear,0,2013-08-23 02:13:00
9:33 PM,69.8,59.0,68,30.14,10.0,Calm,Calm,-,N/A,,Clear,0,2013-08-23 02:33:00
9:52 PM,68.0,59.0,73,30.14,10.0,Calm,Calm,-,N/A,,Clear,0,2013-08-23 02:52:00
10:13 PM,68.0,59.0,73,30.14,10.0,Calm,Calm,-,N/A,,Unknown,0,2013-08-23 03:13:00
10:33 PM,69.8,55.4,60,30.14,10.0,East,3.5,-,N/A,,Unknown,90,2013-08-23 03:33:00
10:53 PM,66.2,55.4,68,30.14,10.0,SE,3.5,-,N/A,,Unknown,130,2013-08-23 03:53:00
11:12 PM,64.4,55.4,73,30.14,10.0,Calm,Calm,-,N/A,,Clear,0,2013-08-23 04:12:00
11:33 PM,64.4,55.4,73,30.15,10.0,Calm,Calm,-,N/A,,Unknown,0,2013-08-23 04:33:00
11:53 PM,64.4,53.6,68,30.15,10.0,Calm,Calm,-,N/A,,Unknown,0,2013-08-23 04:53:00